Temperature
15 15 15 15 16 16 16 15 15 14 14 14 13 13 13 13 12 12 13 13 13 12 12 12 12 12 12 12 12 12 12 12 12 11 11 11 11 11 11 10 10 10 10
15 15 15 14 15 15 14 15 15 14 13 13 13 13 13 13 12 12 13 13 13 13 12 12 12 12 12 12 12 12 12 11 11 11 11 11 11 10 10 10 10 9 9
15 15 15 14 14 14 14 14 14 13 13 13 13 13 13 13 12 12 12 12 12 12 12 12 12 12 12 11 11 11 11 11 11 11 11 10 10 10 10 9 9 9 8
15 15 15 14 14 14 14 13 13 13 13 13 13 13 13 12 12 12 12 12 12 12 12 12 12 12 11 11 11 11 11 11 10 10 10 10 10 10 9 9 8 8 7
15 15 14 14 14 13 13 13 13 13 13 13 13 12 12 12 12 12 11 11 12 12 12 12 12 11 11 11 10 10 10 10 10 10 10 10 9 9 9 8 7 7 6
15 14 14 14 14 13 13 13 13 12 12 12 12 12 12 12 12 12 12 11 11 11 12 12 12 11 11 11 10 10 10 10 9 9 9 9 9 9 8 7 6 6 6
15 14 14 14 13 13 13 12 12 12 12 12 11 11 11 11 11 12 11 11 11 11 11 11 11 11 11 10 10 10 9 9 9 9 8 8 8 8 7 6 6 5 5
15 14 14 14 13 13 12 12 12 12 12 11 11 11 10 11 11 11 11 11 11 11 11 11 11 11 11 10 10 10 9 9 8 8 8 8 7 7 6 6 5 5 5
15 14 14 13 13 13 12 12 12 12 12 11 11 11 11 11 11 11 11 11 11 11 10 10 10 10 10 10 10 9 9 8 7 7 7 7 6 6 5 5 4 4 4
14 14 14 13 13 12 12 12 12 12 11 11 11 11 11 11 11 11 10 10 10 10 10 9 9 9 9 9 9 9 8 7 7 7 6 6 5 5 4 4 4 4 4
13 13 13 13 12 12 12 12 12 11 11 11 11 11 10 10 10 10 10 10 10 9 9 8 8 8 8 7 7 7 7 7 6 6 6 5 4 4 4 3 3 3 3
13 13 13 12 12 12 12 11 11 11 11 11 11 11 11 10 10 10 10 10 10 9 8 8 7 7 7 6 6 6 6 5 5 5 5 4 3 3 3 3 2 2 2
12 12 12 12 12 12 11 11 11 11 11 11 11 10 10 10 10 10 10 9 9 8 8 7 7 6 6 6 5 5 5 4 4 4 4 4 3 2 3 3 2 2 2
12 12 11 11 11 11 11 11 11 11 11 10 10 10 10 10 10 9 9 9 8 7 7 7 6 6 5 5 5 4 4 3 3 3 3 3 2 2 2 2 2 2 1
11 11 11 11 11 10 10 10 10 10 10 10 10 9 9 9 9 9 8 8 7 6 6 6 6 5 5 4 4 3 3 2 2 2 2 2 2 1 1 1 1 1 1
10 10 10 10 10 10 9 9 9 9 9 9 9 9 9 8 8 8 7 7 6 6 5 5 5 4 4 3 2 2 2 1 2 1 1 1 0 0 0 0 0 0 -0
9 9 9 9 9 9 8 8 8 8 8 8 8 8 8 7 7 7 6 6 5 5 4 4 3 3 2 2 1 1 1 1 1 1 0 -0 -0 -0 -0 -1 -1 -1 -1
8 8 8 8 7 7 7 7 7 7 7 7 7 7 6 6 6 5 5 4 4 3 3 3 2 2 1 1 0 -0 -0 -0 -0 -1 -1 -1 -1 -2 -2 -2 -2 -2 -2
7 7 7 7 7 7 7 7 7 6 6 6 6 5 5 5 4 4 3 3 2 2 2 2 1 1 0 -0 -1 -1 -1 -1 -1 -2 -2 -2 -2 -2 -3 -3 -3 -3 -3
6 6 6 6 6 6 6 6 5 5 5 5 4 4 3 3 2 2 2 1 1 1 1 0 0 -0 -1 -2 -2 -2 -2 -2 -2 -2 -3 -3 -3 -3 -3 -3 -3 -3 -3
5 5 4 4 4 4 4 4 4 3 3 3 3 2 2 1 1 1 1 0 -0 -0 -1 -1 -1 -2 -2 -3 -4 -4 -4 -3 -3 -3 -3 -3 -3 -3 -3 -3 -3 -3 -4
4 3 3 3 3 2 2 2 2 2 2 1 1 1 0 0 0 -0 -1 -1 -1 -2 -2 -3 -3 -3 -4 -4 -5 -5 -5 -5 -4 -4 -4 -3 -4 -3 -3 -3 -3 -4 -4
2 2 1 1 1 1 1 1 1 1 0 0 -0 -0 -1 -1 -1 -1 -2 -2 -2 -3 -3 -4 -4 -4 -4 -5 -5 -5 -5 -5 -5 -5 -5 -4 -3 -3 -3 -3 -4 -4 -4
1 1 1 0 0 -0 -0 -0 -0 -0 -0 -1 -1 -1 -1 -1 -2 -2 -3 -3 -3 -4 -4 -5 -5 -5 -5 -6 -6 -6 -6 -6 -5 -5 -6 -5 -4 -4 -4 -3 -3 -4 -4
0 0 -0 -0 -0 -1 -1 -1 -1 -1 -1 -1 -2 -2 -2 -3 -3 -3 -4 -4 -5 -5 -5 -6 -6 -6 -6 -6 -6 -6 -6 -6 -6 -5 -6 -6 -5 -5 -4 -3 -3 -3 -4
-0 -1 -1 -1 -1 -1 -1 -1 -2 -2 -2 -2 -3 -3 -3 -4 -4 -4 -5 -5 -5 -6 -6 -6 -6 -6 -6 -6 -6 -6 -6 -7 -7 -7 -6 -7 -7 -7 -6 -4 -3 -4 -4
Wind_Speed
5 7 8 12 13 13 12 10 10 9 8 8 8 6 6 6 7 13 14 15 14 13 11 10 9 9 9 8 8 8 8 8 8 8 8 8 8 8 9 9 9 10 10
8 6 5 7 10 12 12 11 9 6 5 5 5 5 5 5 6 13 16 16 15 14 12 11 10 9 9 8 8 7 7 6 6 6 6 6 6 6 7 7 8 8 9
11 8 4 4 8 11 10 10 9 6 4 4 4 5 6 7 7 11 16 16 15 15 14 13 12 11 9 9 8 7 6 5 5 4 4 4 4 5 5 6 6 7 8
13 9 4 5 10 11 8 4 4 4 4 4 4 3 3 4 6 9 14 17 17 15 15 14 13 12 11 10 9 7 6 5 3 2 2 2 3 4 4 5 6 7 8
15 10 6 6 10 7 5 5 5 5 5 5 5 4 4 4 4 6 8 14 17 18 17 15 14 14 13 11 10 8 7 5 3 2 0 1 2 4 5 6 7 8 9
14 12 7 8 9 5 6 6 6 6 5 6 5 4 4 5 4 4 5 9 14 18 19 17 16 14 14 13 11 10 8 6 4 3 2 2 3 4 6 7 8 9 10
12 11 6 7 7 7 8 8 6 7 6 5 4 2 3 3 5 5 5 5 8 14 17 19 18 16 15 14 13 11 9 7 6 4 4 4 4 5 7 8 9 10 12
11 9 8 8 8 7 8 9 8 6 6 6 5 3 3 4 6 7 6 6 6 10 12 16 18 18 17 16 14 12 10 8 7 6 5 4 5 6 8 9 11 12 13
12 11 9 7 8 9 8 9 9 10 8 7 6 5 5 7 4 4 7 6 6 5 6 10 14 16 17 17 16 14 11 9 7 6 5 5 6 8 9 11 12 13 14
11 13 11 9 9 8 9 9 10 9 8 7 6 5 4 3 4 3 2 4 5 5 5 5 8 12 14 14 15 14 12 10 8 6 6 7 8 9 11 12 14 15 15
8 10 11 9 10 9 10 10 10 10 10 9 7 5 6 4 2 4 3 3 3 3 3 3 5 8 11 12 13 14 13 11 8 7 7 8 10 11 13 14 15 16 16
5 7 8 9 10 10 10 11 10 11 11 10 9 7 6 5 6 5 4 3 4 2 1 2 2 5 8 10 10 12 12 10 8 7 8 9 11 13 14 15 16 17 18
3 4 5 7 8 9 10 10 10 11 11 10 10 9 8 7 4 5 6 4 3 1 1 1 1 3 5 7 8 11 11 9 8 9 10 11 13 14 15 16 17 18 19
3 3 3 4 5 6 7 8 8 9 8 9 9 8 6 6 4 4 5 6 4 2 2 3 1 2 4 6 8 10 8 9 9 10 12 13 15 16 17 17 18 19 19
4 4 3 3 3 3 3 4 5 5 5 5 5 5 3 2 2 2 2 4 6 6 7 5 3 3 5 6 8 7 6 8 10 12 14 15 16 17 18 18 18 19 20
5 5 4 4 3 3 2 1 1 1 2 1 1 3 3 3 3 3 2 1 1 4 4 3 2 2 5 6 7 6 7 9 12 14 16 17 17 18 18 18 19 20 20
7 6 6 6 6 6 5 4 3 3 3 4 4 5 5 5 4 4 4 3 2 2 3 2 2 2 3 3 4 6 7 9 11 14 16 17 18 18 19 19 20 20 21
7 8 8 8 8 8 8 7 6 6 6 6 6 7 6 6 6 5 4 4 3 3 3 3 2 2 3 4 4 4 6 8 10 13 16 17 18 18 19 20 20 20 20
9 10 10 10 9 9 9 9 8 8 8 8 7 7 7 7 6 5 5 4 3 3 3 3 2 1 1 2 3 4 5 6 9 12 14 15 16 18 18 19 19 20 21
10 10 10 10 10 10 10 10 10 10 10 10 9 8 7 7 6 6 5 5 4 4 3 2 1 1 1 2 2 3 3 3 4 8 12 15 16 16 17 19 20 21 21
10 9 10 10 10 9 9 10 9 10 10 10 10 9 8 9 9 6 4 4 3 2 1 1 1 1 1 1 2 2 2 3 4 4 4 6 9 11 15 19 21 21 22
10 10 11 10 10 9 14 15 11 9 9 9 9 7 7 7 8 7 6 4 2 1 1 0 1 1 2 2 1 1 1 2 4 3 3 7 6 8 11 16 19 21 21
10 10 10 10 11 12 16 16 15 9 9 7 6 5 4 4 5 3 3 2 2 2 2 1 1 2 2 2 1 2 3 4 5 5 6 9 6 8 11 17 20 21 22
8 8 9 9 9 12 15 14 13 8 7 6 5 4 4 4 3 3 3 3 3 3 3 2 2 3 3 3 3 4 5 5 6 5 4 6 6 7 9 13 20 22 22
7 7 7 8 8 8 11 11 9 4 5 5 4 5 5 4 4 4 3 3 3 4 5 6 7 8 10 11 10 4 3 4 6 5 3 3 4 5 6 8 13 16 17
7 6 6 6 6 6 9 9 8 4 4 3 2 2 3 3 5 5 3 3 4 4 4 5 6 8 8 9 11 5 4 4 4 5 2 2 3 4 5 4 4 9 13
Wind_Direction
170 180 182 177 184 190 189 189 207 208 199 198 202 197 170 176 143 134 147 152 154 157 156 153 151 145 137 128 118 108 100 91 83 75 68 62 57 52 47 44 39 35 31
185 186 188 181 187 192 184 191 208 202 187 192 192 184 172 174 159 143 152 159 163 166 168 169 166 160 153 145 135 124 113 102 90 79 68 60 51 43 37 34 30 24 20
193 190 187 183 191 196 191 190 206 202 183 181 190 188 184 185 178 156 157 163 168 174 177 180 177 173 167 161 152 142 130 115 100 84 67 54 42 28 20 17 12 7 3
199 193 190 196 195 195 194 185 195 188 182 176 186 200 182 175 184 178 168 167 171 177 183 187 184 182 178 175 170 162 153 141 126 103 69 42 22 5 357 351 348 346 344
206 198 196 203 201 196 191 189 189 182 182 186 193 196 192 181 197 194 178 173 173 176 180 187 185 184 183 184 182 177 171 164 160 159 131 357 345 340 334 331 329 328 327
208 205 201 207 205 198 198 192 190 191 186 182 188 190 199 191 191 197 198 185 174 172 175 178 178 181 185 189 190 188 186 185 189 203 227 273 305 315 316 317 318 318 318
217 209 203 204 207 207 201 195 188 196 201 172 156 196 241 216 205 205 201 191 179 176 174 175 178 181 186 192 194 195 195 196 203 218 239 263 287 303 310 312 313 313 312
233 225 212 209 209 213 208 202 195 190 196 179 160 147 216 249 246 217 201 202 192 182 181 179 180 179 183 188 191 193 195 202 213 224 242 267 286 299 304 306 307 307 307
227 229 226 220 215 214 218 213 203 196 201 199 183 170 181 212 217 224 212 201 192 182 184 183 182 179 177 179 184 189 190 197 211 227 248 270 285 294 299 301 302 304 304
221 223 223 221 222 221 221 219 214 208 196 203 212 221 212 171 168 202 247 212 194 188 184 187 184 179 175 170 174 179 186 193 208 228 252 272 285 293 297 300 301 302 303
222 221 220 219 223 225 225 222 219 216 210 205 199 199 222 236 207 165 202 222 216 206 182 173 173 172 173 168 168 176 185 196 212 232 254 275 287 293 297 300 300 301 301
240 229 224 222 223 224 225 224 223 221 218 214 209 199 190 196 203 193 187 184 202 212 156 121 146 159 164 165 172 181 190 202 219 242 263 279 288 295 298 300 299 299 298
273 254 237 229 226 226 225 224 225 227 223 219 217 213 209 211 190 192 195 172 157 130 93 77 78 124 147 151 167 179 194 210 231 253 269 282 292 297 298 298 296 296 296
296 296 277 258 243 233 229 226 227 228 225 223 221 214 212 209 198 192 183 165 158 170 199 209 156 164 161 160 176 185 202 222 245 264 276 283 290 293 294 293 293 294 294
330 331 323 303 291 270 241 225 228 229 225 227 219 206 201 177 160 162 156 175 175 189 210 198 185 177 170 170 186 191 210 237 257 269 276 281 285 287 288 289 291 292 291
4 2 2 8 11 15 15 33 202 192 175 172 137 143 132 117 107 99 101 86 148 176 175 155 167 160 171 183 199 205 231 252 266 274 279 282 283 284 286 288 289 289 288
21 22 27 35 39 42 42 53 60 73 94 90 90 105 104 104 106 98 94 94 82 106 143 115 108 132 161 178 211 227 245 261 270 275 280 282 284 285 286 287 287 286 286
35 39 45 50 49 48 49 57 66 69 81 88 90 96 99 101 98 95 93 90 85 73 116 131 146 165 189 195 209 234 254 261 263 273 280 283 285 286 286 286 286 285 285
44 45 50 55 54 55 56 60 68 72 75 80 85 94 98 102 99 94 90 89 85 75 71 118 128 143 187 208 220 245 253 260 269 278 286 289 291 290 289 288 288 287 286
53 53 55 57 57 60 64 68 72 75 76 74 74 77 81 87 94 95 94 94 92 86 85 103 135 178 209 219 216 241 266 268 279 292 290 290 292 295 295 294 293 292 289
60 61 63 62 61 63 67 73 75 79 80 78 73 70 76 88 92 88 92 93 93 98 111 137 178 213 234 237 239 236 261 291 293 278 279 288 298 296 293 291 292 289 287
62 64 66 68 67 72 81 82 82 77 78 79 77 72 73 69 74 74 79 81 82 81 75 134 247 246 262 266 262 265 285 313 302 304 323 298 291 285 283 281 285 288 289
69 69 69 71 72 74 78 80 81 79 78 78 79 77 76 78 69 48 29 14 337 306 276 239 251 267 279 274 287 300 281 268 265 276 298 290 279 278 279 285 292 295 296
73 73 70 69 72 73 76 80 82 77 79 76 71 66 67 74 69 39 13 8 338 313 289 257 233 258 273 269 246 247 254 273 275 275 271 280 284 279 286 287 291 294 295
77 75 74 73 73 69 70 71 74 76 80 76 69 59 49 36 25 16 12 344 327 317 318 310 289 284 285 285 280 271 276 289 294 293 268 263 288 300 289 283 286 293 298
83 83 79 78 81 75 66 60 55 52 60 57 58 72 68 32 360 355 0 340 321 314 333 330 316 306 298 291 289 261 220 242 273 290 281 297 298 327 307 282 277 289 294
Height
1548 1549 1550 1550 1552 1553 1554 1556 1557 1558 1560 1561 1562 1563 1564 1564 1565 1563 1564 1564 1564 1564 1564 1564 1564 1564 1564 1564 1564 1564 1563 1563 1563 1563 1563 1562 1562 1561 1561 1560 1560 1559 1559
1546 1547 1548 1549 1550 1551 1553 1554 1555 1557 1558 1559 1560 1561 1561 1562 1562 1561 1561 1561 1562 1562 1562 1562 1562 1562 1562 1562 1562 1562 1562 1562 1562 1562 1562 1561 1561 1560 1560 1559 1559 1558 1558
1543 1545 1546 1547 1548 1550 1551 1552 1553 1554 1555 1556 1557 1557 1558 1559 1559 1559 1558 1558 1559 1559 1559 1559 1560 1560 1560 1560 1560 1560 1560 1560 1560 1560 1560 1560 1559 1559 1559 1558 1557 1557 1556
1541 1542 1543 1544 1545 1546 1548 1549 1550 1551 1552 1552 1553 1554 1555 1555 1555 1556 1555 1555 1555 1556 1556 1557 1557 1557 1558 1558 1558 1558 1558 1558 1558 1558 1558 1558 1557 1557 1557 1556 1556 1555 1555
1537 1538 1539 1540 1542 1543 1544 1545 1546 1547 1548 1548 1549 1550 1551 1551 1552 1552 1552 1551 1551 1551 1552 1553 1554 1554 1554 1555 1555 1555 1555 1555 1555 1555 1555 1555 1555 1554 1554 1554 1554 1553 1553
1533 1534 1535 1536 1538 1539 1539 1540 1541 1542 1543 1544 1545 1546 1546 1547 1547 1547 1548 1548 1547 1547 1548 1549 1549 1550 1551 1551 1551 1552 1552 1552 1552 1552 1552 1552 1552 1551 1551 1551 1551 1550 1550
1529 1530 1530 1531 1532 1533 1534 1536 1537 1537 1538 1540 1541 1541 1541 1541 1541 1542 1543 1543 1543 1543 1543 1544 1544 1545 1546 1547 1547 1548 1548 1548 1548 1548 1548 1548 1548 1547 1547 1547 1547 1547 1546
1523 1524 1525 1526 1527 1528 1529 1530 1531 1532 1533 1535 1535 1535 1536 1536 1534 1534 1535 1537 1537 1538 1538 1538 1539 1539 1540 1541 1543 1543 1544 1544 1544 1544 1544 1544 1543 1543 1543 1543 1542 1542 1542
1517 1518 1520 1521 1522 1523 1523 1524 1525 1526 1527 1528 1529 1530 1529 1527 1527 1528 1528 1529 1530 1531 1532 1533 1533 1533 1534 1535 1537 1538 1539 1539 1539 1539 1539 1539 1539 1538 1538 1538 1537 1537 1537
1511 1512 1513 1514 1515 1516 1517 1518 1519 1520 1520 1520 1521 1522 1523 1523 1523 1521 1522 1522 1523 1524 1525 1526 1527 1528 1528 1529 1530 1532 1533 1533 1533 1533 1533 1533 1533 1533 1532 1532 1532 1531 1531
1505 1506 1506 1507 1508 1509 1510 1511 1512 1513 1513 1513 1513 1514 1516 1517 1517 1516 1515 1516 1517 1517 1519 1520 1521 1521 1522 1523 1523 1525 1526 1527 1527 1527 1527 1527 1527 1527 1526 1525 1525 1524 1523
1499 1500 1500 1500 1501 1501 1502 1504 1505 1505 1506 1506 1506 1506 1507 1508 1509 1510 1509 1509 1510 1511 1512 1513 1513 1514 1515 1516 1517 1518 1519 1520 1521 1521 1521 1520 1520 1519 1518 1518 1517 1516 1516
1493 1493 1494 1494 1494 1494 1495 1496 1497 1497 1498 1498 1498 1498 1499 1499 1501 1502 1503 1502 1503 1504 1505 1505 1505 1506 1507 1509 1510 1511 1512 1513 1514 1514 1514 1513 1513 1512 1511 1510 1509 1508 1507
1486 1487 1487 1487 1487 1488 1488 1489 1489 1490 1491 1491 1491 1491 1491 1492 1493 1493 1494 1495 1495 1495 1496 1497 1498 1499 1500 1502 1503 1504 1505 1506 1506 1507 1507 1506 1505 1504 1503 1502 1501 1500 1499
1480 1480 1480 1480 1481 1481 1481 1482 1482 1483 1484 1484 1484 1485 1485 1484 1485 1485 1486 1487 1488 1487 1488 1489 1491 1492 1494 1496 1497 1498 1499 1499 1500 1500 1500 1499 1498 1497 1495 1494 1493 1492 1491
1474 1474 1474 1474 1474 1475 1475 1475 1476 1476 1477 1478 1478 1479 1479 1479 1479 1479 1479 1479 1480 1481 1482 1483 1484 1486 1488 1489 1491 1492 1493 1493 1493 1493 1493 1492 1491 1489 1488 1487 1485 1484 1483
1470 1469 1469 1469 1469 1469 1470 1470 1470 1471 1471 1472 1472 1473 1473 1474 1473 1474 1474 1475 1475 1476 1477 1478 1480 1481 1483 1484 1485 1486 1487 1487 1487 1486 1486 1485 1483 1482 1481 1479 1478 1477 1476
1466 1466 1465 1465 1465 1465 1465 1466 1466 1466 1467 1467 1467 1468 1469 1469 1469 1469 1470 1471 1472 1472 1474 1474 1476 1477 1479 1480 1481 1481 1481 1481 1481 1480 1479 1478 1477 1475 1474 1473 1471 1470 1469
1463 1463 1463 1462 1462 1462 1462 1462 1462 1462 1463 1463 1463 1464 1465 1465 1466 1466 1467 1468 1469 1470 1471 1472 1472 1474 1475 1476 1476 1476 1475 1475 1475 1474 1473 1472 1470 1469 1468 1467 1465 1464 1462
1461 1461 1460 1460 1460 1460 1459 1459 1460 1460 1460 1460 1461 1462 1462 1463 1464 1464 1465 1466 1467 1468 1468 1469 1470 1470 1471 1471 1471 1471 1470 1470 1469 1468 1467 1466 1465 1463 1462 1461 1459 1457 1456
1460 1460 1459 1459 1459 1458 1458 1458 1458 1459 1459 1459 1460 1461 1462 1462 1463 1463 1464 1465 1465 1466 1466 1467 1467 1467 1467 1467 1467 1466 1466 1465 1464 1463 1461 1461 1459 1458 1456 1455 1453 1451 1449
1460 1460 1459 1459 1459 1458 1459 1459 1459 1459 1459 1460 1460 1461 1462 1462 1462 1463 1463 1464 1464 1465 1464 1464 1464 1464 1464 1464 1463 1463 1462 1460 1459 1459 1456 1455 1454 1452 1450 1448 1446 1445 1443
1461 1461 1461 1461 1460 1460 1460 1460 1460 1460 1460 1461 1461 1462 1462 1462 1462 1462 1462 1462 1462 1462 1462 1462 1462 1461 1461 1460 1460 1459 1458 1457 1455 1454 1452 1448 1448 1446 1444 1442 1441 1439 1437
1463 1463 1463 1463 1462 1462 1462 1462 1462 1462 1462 1462 1462 1462 1462 1461 1461 1461 1461 1460 1460 1460 1459 1459 1458 1458 1457 1457 1456 1455 1454 1452 1451 1450 1448 1443 1441 1440 1438 1436 1435 1433 1431
1465 1465 1465 1465 1465 1464 1464 1464 1464 1463 1463 1462 1462 1462 1461 1461 1460 1459 1459 1458 1458 1457 1457 1456 1456 1455 1454 1454 1453 1452 1450 1449 1446 1444 1443 1440 1436 1433 1431 1429 1428 1426 1424
1467 1467 1467 1467 1466 1466 1466 1465 1465 1464 1463 1462 1462 1461 1460 1459 1459 1458 1457 1456 1456 1455 1454 1453 1453 1452 1451 1451 1450 1449 1447 1445 1443 1440 1438 1436 1433 1429 1423 1420 1420 1419 1417